Simultaneous Nadir Overpasses (SNOs) Predictions

Prediction of SNOs between GOES-16 and TERRA Satellite Orbit:

Table of predicted SNOs for the next 14.0 days since TLE Epoch: 9/28/2019
Index Date Time (GOES-16) GOES-16 Lat,Lon TERRA Lat,Lon Distance(km) Time Diff (sec)
1 09/29/2019 15:26:24 0.00, -75.20 -0.32, -73.80 158.82 80
2 09/30/2019 03:47:48 -0.00, -75.19 -0.80, -78.99 432.61 80
3 10/01/2019 15:14:12 0.00, -75.20 -0.91, -70.84 494.98 80
4 10/02/2019 03:35:37 -0.00, -75.19 -0.15, -76.04 96.36 80
5 10/04/2019 03:20:45 0.00, -75.20 0.43, -73.08 240.41 80
6 10/04/2019 15:42:00 -0.00, -75.21 0.63, -78.24 344.76 80
7 10/06/2019 15:32:29 -0.00, -75.22 0.04, -75.28 8.04 80
8 10/08/2019 15:17:38 0.00, -75.24 -0.61, -72.33 330.85 80
9 10/09/2019 03:41:41 -0.00, -75.24 -0.51, -77.52 259.86 80
10 10/11/2019 03:26:50 -0.00, -75.27 0.15, -74.57 79.26 80




NCC Satellite Simultaneous Nadir Overpasses (SNOs) Prediction Service
